TimeEST,TemperatureF,Dew PointF,Humidity,Sea Level PressureIn,VisibilityMPH,Wind Direction,Wind SpeedMPH,Gust SpeedMPH,PrecipitationIn,Events,Conditions,WindDirDegrees,DateUTC
12:53 AM,60.1,59.0,96,29.85,10.0,SSE,10.4,-,0.01,,Partly Cloudy,150,2013-02-24 05:53:00
1:53 AM,61.0,59.0,93,29.86,10.0,South,3.5,-,N/A,,Mostly Cloudy,190,2013-02-24 06:53:00
2:53 AM,61.0,60.1,97,29.88,9.0,WSW,6.9,-,0.02,Rain,Light Rain,240,2013-02-24 07:53:00
3:11 AM,60.8,60.8,100,29.89,2.5,West,5.8,-,0.06,Rain,Rain,280,2013-02-24 08:11:00
3:19 AM,60.8,60.8,100,29.90,3.0,WNW,5.8,-,0.07,Rain,Light Rain,290,2013-02-24 08:19:00
3:26 AM,60.8,60.8,100,29.90,5.0,WNW,5.8,-,0.07,Rain,Light Rain,300,2013-02-24 08:26:00
3:53 AM,61.0,60.1,97,29.90,6.0,WNW,5.8,-,0.08,Rain,Light Rain,290,2013-02-24 08:53:00
4:20 AM,60.8,60.8,100,29.91,8.0,WNW,4.6,-,0.00,,Overcast,290,2013-02-24 09:20:00
4:47 AM,62.6,60.8,94,29.90,10.0,Variable,3.5,-,0.00,,Overcast,0,2013-02-24 09:47:00
4:53 AM,62.1,60.1,93,29.91,10.0,Variable,3.5,-,0.00,,Overcast,0,2013-02-24 09:53:00
5:19 AM,62.6,60.8,94,29.91,10.0,Calm,Calm,-,N/A,,Overcast,0,2013-02-24 10:19:00
5:51 AM,62.6,60.8,94,29.92,10.0,NW,3.5,-,N/A,,Overcast,310,2013-02-24 10:51:00
5:53 AM,62.1,60.1,93,29.93,10.0,NW,3.5,-,N/A,,Overcast,310,2013-02-24 10:53:00
6:07 AM,60.8,59.0,94,29.93,10.0,NW,8.1,-,N/A,,Overcast,320,2013-02-24 11:07:00
6:32 AM,60.8,57.2,88,29.94,10.0,NNW,5.8,-,N/A,,Overcast,330,2013-02-24 11:32:00
6:42 AM,59.0,57.2,94,29.94,10.0,NNW,6.9,-,N/A,,Overcast,330,2013-02-24 11:42:00
6:53 AM,59.0,57.0,93,29.95,10.0,NW,5.8,-,N/A,,Overcast,320,2013-02-24 11:53:00
7:18 AM,57.2,57.2,100,29.95,10.0,NNW,3.5,-,N/A,,Scattered Clouds,330,2013-02-24 12:18:00
7:53 AM,57.9,55.9,93,29.95,10.0,Calm,Calm,-,N/A,,Clear,0,2013-02-24 12:53:00
8:15 AM,59.0,57.2,94,29.96,10.0,Calm,Calm,-,N/A,,Partly Cloudy,0,2013-02-24 13:15:00
8:53 AM,60.1,55.9,86,29.98,10.0,NW,4.6,-,N/A,,Partly Cloudy,310,2013-02-24 13:53:00
9:53 AM,62.1,52.0,70,29.99,10.0,NW,4.6,-,N/A,,Clear,320,2013-02-24 14:53:00
10:53 AM,66.0,48.9,54,29.99,10.0,NNW,4.6,-,N/A,,Clear,330,2013-02-24 15:53:00
11:53 AM,70.0,44.1,39,29.99,10.0,Variable,5.8,-,N/A,,Clear,0,2013-02-24 16:53:00
12:53 PM,72.0,42.1,34,29.97,10.0,Variable,4.6,-,N/A,,Partly Cloudy,0,2013-02-24 17:53:00
1:53 PM,68.0,53.1,59,29.97,10.0,ESE,9.2,-,N/A,,Clear,120,2013-02-24 18:53:00
2:53 PM,66.0,53.1,63,29.95,10.0,East,8.1,-,N/A,,Clear,100,2013-02-24 19:53:00
3:53 PM,63.0,55.0,75,29.95,10.0,SE,9.2,-,N/A,,Clear,130,2013-02-24 20:53:00
4:53 PM,61.0,55.9,83,29.96,10.0,SE,9.2,-,N/A,,Clear,130,2013-02-24 21:53:00
5:53 PM,61.0,55.0,81,29.96,10.0,ESE,6.9,-,N/A,,Clear,120,2013-02-24 22:53:00
6:53 PM,60.1,55.9,86,29.98,10.0,SE,3.5,-,N/A,,Clear,140,2013-02-24 23:53:00
7:53 PM,60.1,55.0,83,29.99,10.0,SE,4.6,-,N/A,,Clear,130,2013-02-25 00:53:00
8:53 PM,60.1,55.0,83,29.99,10.0,ESE,3.5,-,N/A,,Clear,120,2013-02-25 01:53:00
9:53 PM,61.0,55.0,81,30.00,10.0,Calm,Calm,-,N/A,,Overcast,0,2013-02-25 02:53:00
10:53 PM,60.1,55.0,83,29.99,10.0,East,4.6,-,N/A,,Overcast,90,2013-02-25 03:53:00
11:53 PM,61.0,55.9,83,29.96,10.0,ENE,3.5,-,N/A,,Overcast,70,2013-02-25 04:53:00